Henderson, NV

7:52 PM PST on December 14, 2017 (GMT -0800)
Henderson

Weather History for KHND - December, 2013

Change the Weather History Date:

Wednesday, December 4, 2013

  Actual Average (KLAS) Record (KLAS)
Temperature  
Mean Temperature 37 °F -  
Max Temperature 43 °F 59 °F 76 °F (1939)
Min Temperature 28 °F 37 °F 24 °F (1948)
Degree Days  
Heating Degree Days 28    
Moisture  
Dew Point 20 °F    
Average Humidity 54    
Maximum Humidity 93    
Minimum Humidity 25    
Precipitation  
Precipitation 0.03 in - - ()
Sea Level Pressure  
Sea Level Pressure 29.94 in    
Wind  
Wind Speed 10 mph (NE)    
Max Wind Speed 17 mph    
Max Gust Speed 25 mph    
Visibility 10 miles    
Events Rain    
Averages and records for this station are not official NWS values.
T = Trace of Precipitation, MM = Missing Value Source: NWS Daily Summary

Daily Weather History Graph

Daily Weather History Graph

Search for Another Location

Airport or City:

Trip Planner

Search our weather history database for the weather conditions in past years. The results will help you decide how hot, cold, wet, or windy it might be!

Date:

Astronomy

Dec. 04, 2013 Rise Set
Actual Time 6:35 AM PST 4:26 PM PST
Civil Twilight 6:07 AM PST 4:54 PM PST
Nautical Twilight 5:35 AM PST 5:26 PM PST
Astronomical Twilight 5:04 AM PST 5:57 PM PST
Moon 8:08 AM PST (12/4) 6:39 PM PST (12/4)
Length of Visible Light 10h 47m
Length of Day
9h 50m
Waxing Crescent, 5% of the Moon is Illuminated
Dec 4
Waxing Crescent
Dec 9
First Quarter
Dec 17
Full
Dec 25
Last Quarter
Jan 1
New

Hourly Weather History & Observations

Time (PST) Temp. Windchill Dew Point Humidity Pressure Visibility Wind Dir Wind Speed Gust Speed Precip Events Conditions
12:07 AM 37.4 °F 28.9 °F 33.8 °F 87% 29.71 in 3.0 mi NE 13.8 mph - 0.01 in Rain Heavy Rain
12:34 AM 35.6 °F 26.2 °F 33.8 °F 93% 29.71 in 4.0 mi NE 15.0 mph - 0.02 in Rain Heavy Rain
12:56 AM 36.0 °F 29.0 °F 32.9 °F 89% 29.73 in 9.0 mi ENE 9.2 mph 20.7 mph 0.03 in Rain Heavy Rain
1:56 AM 36.0 °F 28.0 °F 32.9 °F 89% 29.75 in 10.0 mi NE 11.5 mph 18.4 mph 0.00 in Rain Heavy Rain
2:56 AM 36.9 °F 27.1 °F 31.1 °F 80% 29.78 in 10.0 mi NNE 17.3 mph 25.3 mph 0.00 in Rain Heavy Rain
3:56 AM 36.0 °F 30.3 °F 30.0 °F 79% 29.79 in 10.0 mi NE 6.9 mph - 0.00 in Rain Heavy Rain
4:29 AM 37.4 °F 32.1 °F 30.2 °F 75% 29.80 in 10.0 mi North 6.9 mph - 0.00 in Rain Heavy Rain
4:56 AM 36.0 °F - 29.1 °F 76% 29.82 in 10.0 mi Calm Calm - 0.00 in Rain Heavy Rain
5:56 AM 36.0 °F 29.6 °F 28.0 °F 73% 29.84 in 10.0 mi NE 8.1 mph - 0.00 in Rain Heavy Rain
6:56 AM 36.9 °F 29.6 °F 23.0 °F 57% 29.88 in 10.0 mi NE 10.4 mph - 0.00 in   Mostly Cloudy
7:56 AM 36.9 °F 28.7 °F 20.1 °F 51% 29.94 in 10.0 mi NNE 12.7 mph - N/A   Mostly Cloudy
8:56 AM 37.9 °F 29.2 °F 18.1 °F 45% 29.98 in 10.0 mi NNE 15.0 mph 23.0 mph N/A   Mostly Cloudy
9:56 AM 39.9 °F 31.4 °F 13.1 °F 33% 29.99 in 10.0 mi North 16.1 mph - N/A   Partly Cloudy
10:56 AM 41.0 °F 32.5 °F 13.1 °F 32% 30.01 in 10.0 mi North 17.3 mph - N/A   Scattered Clouds
11:56 AM 41.9 °F 35.9 °F 15.1 °F 34% 30.01 in 10.0 mi NNE 10.4 mph - N/A   Clear
12:56 PM 43.0 °F 37.2 °F 14.0 °F 31% 30.00 in 10.0 mi NNE 10.4 mph - N/A   Partly Cloudy
1:56 PM 43.9 °F 37.9 °F 15.1 °F 31% 29.99 in 10.0 mi NE 11.5 mph - N/A   Clear
2:56 PM 43.0 °F 36.0 °F 10.0 °F 26% 30.00 in 10.0 mi East 13.8 mph - N/A   Clear
3:56 PM 41.0 °F 35.8 °F 7.2 °F 25% 30.01 in 10.0 mi NE 8.1 mph - N/A   Clear
4:56 PM 37.9 °F 32.7 °F 10.0 °F 32% 30.03 in 10.0 mi ENE 6.9 mph - N/A   Clear
5:56 PM 36.0 °F - 13.1 °F 39% 30.05 in 10.0 mi Calm Calm - N/A   Clear
6:56 PM 36.0 °F - 13.1 °F 39% 30.06 in 10.0 mi Calm Calm - N/A   Clear
7:56 PM 32.9 °F - 15.1 °F 48% 30.08 in 10.0 mi Calm Calm - N/A   Clear
8:56 PM 32.9 °F - 14.0 °F 46% 30.09 in 10.0 mi Calm Calm - N/A   Clear
9:56 PM 32.0 °F - 13.1 °F 46% 30.10 in 10.0 mi Calm Calm - N/A   Clear
10:56 PM 31.1 °F - 14.0 °F 49% 30.09 in 10.0 mi Calm Calm - N/A   Clear
11:56 PM 28.0 °F - 18.1 °F 66% 30.08 in 10.0 mi Calm Calm - N/A   Clear